N45XS KCRP-KGLS

Flight info

Callsign N45XS
Flight time N/A
Altitude 5000
Route DCT WORRY V13 PSX V70 DELVE DCT
Aircraft BE58/L-SDFGRY/C

Departure

Time 2026-04-21 18:24
Airport Corpus Christi International Airport (KCRP)

Arrival

Time N/A
Airport Scholes International At Galveston Airport (KGLS)
Time Latitude Longitude Altitude Speed Heading
2026-04-21 18:06 27.77694 -97.49984 40 ft 0 kts
2026-04-21 18:08 27.77694 -97.49985 40 ft 0 kts
2026-04-21 18:08 27.77694 -97.49984 40 ft 0 kts
2026-04-21 18:19 27.77698 -97.49984 40 ft 3 kts
2026-04-21 18:19 27.77742 -97.49957 40 ft 10 kts 52°
2026-04-21 18:20 27.77759 -97.49877 40 ft 11 kts 90°
2026-04-21 18:20 27.77798 -97.49822 40 ft 11 kts 360°
2026-04-21 18:20 27.77891 -97.49822 40 ft 15 kts 359°
2026-04-21 18:20 27.78006 -97.49824 40 ft 18 kts 360°
2026-04-21 18:21 27.78111 -97.49821 40 ft 10 kts 40°
2026-04-21 18:21 27.78119 -97.49731 40 ft 9 kts 89°
2026-04-21 18:21 27.78119 -97.49725 40 ft 0 kts 89°
2026-04-21 18:23 27.78119 -97.49724 40 ft 1 kts 89°
2026-04-21 18:23 27.78119 -97.49670 40 ft 10 kts 91°
2026-04-21 18:23 27.78081 -97.49635 40 ft 7 kts 179°
2026-04-21 18:23 27.77931 -97.49631 40 ft 53 kts 179°
2026-04-21 18:24 27.77360 -97.49619 121 ft 94 kts 175°
2026-04-21 18:24 27.76704 -97.49632 456 ft 97 kts 179°
2026-04-21 18:24 27.76013 -97.49680 780 ft 105 kts 180°
2026-04-21 18:24 27.75348 -97.49690 1301 ft 96 kts 165°
2026-04-21 18:25 27.74852 -97.49226 1736 ft 98 kts 119°
2026-04-21 18:25 27.74783 -97.48445 2124 ft 106 kts 92°
2026-04-21 18:25 27.74967 -97.47624 2505 ft 116 kts 63°
2026-04-21 18:25 27.75626 -97.47071 2845 ft 128 kts 20°
2026-04-21 18:26 27.76604 -97.46963 2983 ft 147 kts
2026-04-21 18:26 27.77654 -97.46972 3190 ft 157 kts 359°
2026-04-21 18:26 27.78739 -97.46982 3511 ft 156 kts 359°
2026-04-21 18:26 27.79839 -97.46980 3774 ft 160 kts
2026-04-21 18:27 27.80880 -97.46523 4015 ft 160 kts 33°
2026-04-21 18:27 27.81795 -97.45865 4333 ft 159 kts 34°
2026-04-21 18:27 27.82735 -97.45180 4548 ft 162 kts 34°
2026-04-21 18:27 27.83678 -97.44504 4842 ft 160 kts 33°
2026-04-21 18:28 27.84635 -97.43829 5029 ft 165 kts 33°
2026-04-21 18:28 27.85636 -97.43129 5038 ft 174 kts 32°
2026-04-21 18:28 27.86675 -97.42409 5056 ft 176 kts 32°
2026-04-21 18:28 27.87723 -97.41683 5006 ft 178 kts 32°
2026-04-21 18:29 27.88779 -97.40955 4993 ft 177 kts 32°
2026-04-21 18:29 27.89827 -97.40233 4997 ft 176 kts 32°
2026-04-21 18:29 27.90868 -97.39515 4998 ft 176 kts 32°
2026-04-21 18:29 27.91909 -97.38798 4991 ft 175 kts 32°